Date String (YYYY-MM-DD hh:mm:ss) UTC,Instrument flags,Ambient pressure (hPa),Sample flow (lpm),Bypass flow (lpm),Sample temperature (°C),Ambient temperature (°C),ASC tube jacket temperature (°C),LED temperature (°C),Box temperature (°C),Sample RH (%),Span deviation,Mass concentration (μg/m³),Mass concentration (μg/m³),Mass concentration (μg/m³)
DateTimeUTC,F1_M11,P_M11,Q1_M11,Q2_M11,T1_M11,T2_M11,T3_M11,T4_M11,T5_M11,U1_M11,ZSPAN_M11,X0_M11,X2_M11,X1_M11
2022-02-18 17:00:00,,0828.4,5.02,0.00,23.4,22.6,00.0,32.3,25.1,08.2,0000.0,0007.83,0005.23,0005.02
2022-02-18 17:01:00,,0828.5,4.99,0.00,23.4,22.6,00.0,32.3,25.2,08.3,0000.0,0007.89,0005.22,0005.00
2022-02-18 17:02:00,,0828.5,5.01,0.00,23.4,22.6,00.0,32.3,25.2,08.1,0000.0,0007.94,0005.21,0004.98
2022-02-18 17:03:00,,0828.6,5.00,0.00,23.4,22.6,00.0,32.3,25.2,08.1,0000.0,0007.98,0005.21,0004.95
2022-02-18 17:04:00,,0829.0,5.00,0.00,23.4,22.6,00.0,32.3,25.2,08.2,0000.0,0007.96,0005.17,0004.92
2022-02-18 17:05:00,,0828.7,5.00,0.00,23.4,22.7,00.0,32.3,25.2,08.4,0000.0,0007.98,0005.16,0004.89
2022-02-18 17:06:00,,0828.6,4.99,0.00,23.4,22.7,00.0,32.3,25.3,08.4,0000.0,0008.27,0005.14,0004.85
2022-02-18 17:07:00,,0828.8,5.01,0.00,23.4,22.7,00.0,32.3,25.2,08.1,0000.0,0008.17,0005.09,0004.83
2022-02-18 17:08:00,,0828.6,4.99,0.00,23.4,22.7,00.0,32.4,25.2,08.2,0000.0,0008.18,0005.09,0004.82
2022-02-18 17:09:00,,0828.8,5.01,0.00,23.5,22.7,00.0,32.4,25.3,08.2,0000.0,0008.19,0005.08,0004.80
2022-02-18 17:10:00,,0828.8,4.99,0.00,23.5,22.7,00.0,32.4,25.3,08.5,0000.0,0008.11,0005.05,0004.77
2022-02-18 17:11:00,,0828.6,5.01,0.00,23.5,22.7,00.0,32.4,25.3,08.2,0000.0,0007.97,0004.99,0004.73
2022-02-18 17:12:00,,0828.7,4.98,0.00,23.5,22.7,00.0,32.4,25.3,08.4,0000.0,0007.89,0004.96,0004.70
2022-02-18 17:13:00,,0828.6,5.01,0.00,23.5,22.8,00.0,32.4,25.3,08.4,0000.0,0007.89,0004.94,0004.67
2022-02-18 17:14:00,,0828.9,4.99,0.00,23.5,22.8,00.0,32.4,25.3,08.1,0000.0,0007.83,0004.90,0004.64
2022-02-18 17:15:00,,0828.7,5.01,0.00,23.5,22.8,00.0,32.4,25.4,08.0,0000.0,0007.84,0004.90,0004.61
2022-02-18 17:16:00,,0828.7,5.00,0.00,23.5,22.8,00.0,32.4,25.4,08.4,0000.0,0007.87,0004.88,0004.58
2022-02-18 17:17:00,,0828.7,5.01,0.00,23.5,22.8,00.0,32.4,25.4,08.5,0000.0,0007.57,0004.85,0004.56
2022-02-18 17:18:00,,0828.7,4.99,0.00,23.6,22.8,00.0,32.4,25.4,08.5,0000.0,0007.51,0004.82,0004.52
2022-02-18 17:19:00,,0828.7,5.01,0.00,23.6,22.8,00.0,32.5,25.4,08.4,0000.0,0007.49,0004.78,0004.49
2022-02-18 17:20:00,,0828.7,5.01,0.00,23.6,22.8,00.0,32.5,25.4,08.4,0000.0,0007.54,0004.77,0004.47
2022-02-18 17:21:00,,0828.7,4.99,0.00,23.6,22.8,00.0,32.5,25.4,08.2,0000.0,0007.53,0004.74,0004.45
2022-02-18 17:22:00,,0828.7,5.01,0.00,23.6,22.8,00.0,32.5,25.4,08.4,0000.0,0007.56,0004.74,0004.44
2022-02-18 17:23:00,,0828.7,4.99,0.00,23.6,22.9,00.0,32.5,25.5,08.3,0000.0,0007.58,0004.73,0004.44
2022-02-18 17:24:00,,0828.6,5.01,0.00,23.6,22.9,00.0,32.5,25.5,08.3,0000.0,0007.47,0004.68,0004.42
2022-02-18 17:25:00,,0828.9,4.99,0.00,23.6,22.9,00.0,32.5,25.5,08.2,0000.0,0007.55,0004.69,0004.40
2022-02-18 17:26:00,,0828.6,5.01,0.00,23.7,22.9,00.0,32.5,25.5,08.0,0000.0,0007.65,0004.68,0004.38
2022-02-18 17:27:00,,0828.7,4.99,0.00,23.7,22.9,00.0,32.6,25.5,08.0,0000.0,0007.57,0004.65,0004.36
2022-02-18 17:28:00,,0828.7,5.02,0.00,23.7,22.9,00.0,32.6,25.5,08.2,0000.0,0007.57,0004.62,0004.33
2022-02-18 17:29:00,,0828.9,4.98,0.00,23.7,22.9,00.0,32.6,25.5,07.9,0000.0,0007.50,0004.58,0004.30
2022-02-18 17:30:00,,0828.6,5.00,0.00,23.7,23.0,00.0,32.6,25.5,08.1,0000.0,0007.48,0004.56,0004.27
2022-02-18 17:31:00,,0828.6,5.00,0.00,23.7,23.0,00.0,32.6,25.5,08.2,0000.0,0007.44,0004.54,0004.24
2022-02-18 17:32:00,,0828.7,5.00,0.00,23.7,23.0,00.0,32.6,25.5,08.2,0000.0,0007.40,0004.52,0004.23
2022-02-18 17:33:00,,0828.7,5.00,0.00,23.8,23.0,00.0,32.6,25.6,08.1,0000.0,0007.28,0004.49,0004.22
2022-02-18 17:34:00,,0828.7,5.00,0.00,23.8,23.0,00.0,32.6,25.6,08.4,0000.0,0007.11,0004.46,0004.20
2022-02-18 17:35:00,,0828.7,4.99,0.00,23.8,23.1,00.0,32.6,25.6,08.6,0000.0,0007.16,0004.46,0004.19
2022-02-18 17:36:00,,0828.7,5.00,0.00,23.8,23.1,00.0,32.6,25.6,08.3,0000.0,0006.86,0004.42,0004.20
2022-02-18 17:37:00,,0828.7,4.98,0.00,23.8,23.1,00.0,32.7,25.6,08.3,0000.0,0006.58,0004.39,0004.20
2022-02-18 17:38:00,,0828.7,5.01,0.00,23.8,23.1,00.0,32.7,25.7,08.3,0000.0,0006.44,0004.37,0004.21
2022-02-18 17:39:00,,0828.7,5.00,0.00,23.9,23.1,00.0,32.7,25.7,08.4,0000.0,0006.51,0004.40,0004.23
2022-02-18 17:40:00,,0828.6,4.99,0.00,23.9,23.1,00.0,32.7,25.7,08.6,0000.0,0006.73,0004.44,0004.25
2022-02-18 17:41:00,,0828.7,5.01,0.00,23.9,23.2,00.0,32.7,25.7,08.8,0000.0,0006.93,0004.50,0004.28
2022-02-18 17:42:00,,0828.6,4.99,0.00,23.9,23.2,00.0,32.7,25.7,09.0,0000.0,0007.40,0004.52,0004.30
2022-02-18 17:43:00,,0828.8,4.99,0.00,23.9,23.2,00.0,32.8,25.8,08.9,0000.0,0007.72,0004.54,0004.32
2022-02-18 17:44:00,,0829.0,5.00,0.00,23.9,23.2,00.0,32.8,25.8,08.8,0000.0,0007.84,0004.58,0004.34
2022-02-18 17:45:00,,0828.9,5.00,0.00,24.0,23.2,00.0,32.8,25.8,08.9,0000.0,0007.94,0004.63,0004.35
2022-02-18 17:46:00,,0828.5,5.00,0.00,24.0,23.2,00.0,32.8,25.8,09.0,0000.0,0007.96,0004.64,0004.36
2022-02-18 17:47:00,,0828.6,5.00,0.00,24.0,23.2,00.0,32.8,25.9,08.9,0000.0,0007.99,0004.65,0004.35
2022-02-18 17:48:00,,0828.8,5.00,0.00,24.0,23.2,00.0,32.8,25.8,08.9,0000.0,0008.14,0004.70,0004.35
2022-02-18 17:49:00,,0828.7,5.01,0.00,24.0,23.2,00.0,32.8,25.9,09.0,0000.0,0008.86,0004.72,0004.34
2022-02-18 17:50:00,,0828.7,4.98,0.00,24.0,23.2,00.0,32.9,25.9,08.9,0000.0,0009.38,0004.74,0004.31
2022-02-18 17:51:00,,0828.7,5.01,0.00,24.0,23.3,00.0,32.9,25.9,09.2,0000.0,0009.40,0004.75,0004.29
2022-02-18 17:52:00,,0828.7,5.01,0.00,24.1,23.3,00.0,32.9,25.9,09.0,0000.0,0009.41,0004.72,0004.27
2022-02-18 17:53:00,,0828.7,4.99,0.00,24.1,23.3,00.0,32.9,25.9,09.0,0000.0,0009.28,0004.70,0004.24
2022-02-18 17:54:00,,0828.7,5.00,0.00,24.1,23.3,00.0,32.9,26.0,09.0,0000.0,0009.12,0004.72,0004.20
2022-02-18 17:55:00,,0828.7,4.99,0.00,24.1,23.3,00.0,32.9,26.0,09.0,0000.0,0009.79,0004.75,0004.17
2022-02-18 17:56:00,,0828.7,5.01,0.00,24.1,23.4,00.0,32.9,26.0,08.8,0000.0,0010.57,0004.74,0004.13
2022-02-18 17:57:00,,0829.2,5.00,0.00,24.1,23.4,00.0,32.9,26.0,08.9,0000.0,0011.23,0004.73,0004.11
2022-02-18 17:58:00,,0829.2,4.99,0.00,24.1,23.4,00.0,33.0,26.0,09.5,0000.0,0012.34,0004.74,0004.10
2022-02-18 17:59:00,,0829.2,4.99,0.00,24.1,23.4,00.0,33.0,26.0,09.2,0000.0,0013.19,0004.73,0004.10
